Вернуться в каталог

DELTA 1 DEB

АктивенLEO
NORAD 10720·DEBRIS·🇺🇸 United States

Запущен Jul 29, 1976 с Vandenberg Space Force Base

Loading…

Ближайшие Пролёты (ближайшие 24 часа)

TLE

СвежийSource: Space-Track

Эпоха: Sep 14, 2026, 13:01 UTC

1 10720U 76077AR  26257.54266389  .00000281  00000-0  30631-2 0  9998
2 10720 102.1322 358.0566 0358546  29.6618  37.7248 12.05690710206683

Отслеживайте DELTA 1 DEB в реальном времени с AllMySat

Download on the App Store